When you browse on this site, cookies collect data to enhance your experience and personalize the content and advertising you see.
Visit our Privacy Policy to learn more. By continuing to use the site, you agree to this use of cookies and data.
  • In United Kingdom
  • List of Countries
  • For 7 days
  • Water Temperature
  • Weather Map
  • Weather Widgets
  • user-avatar
    Login

    Hourly Weather Kizlyar

    Today, 26 August, Monday

    Time Temperature Precipitation Wind Pressure Humidity
    00:00 +25°C° 0.1 mm 1 mps 761 mmHg 56%
    01:00 +25°C° 0 mm 1 mps 761 mmHg 56%
    02:00 +25°C° 0 mm 1 mps 762 mmHg 55%
    03:00 +25°C° 0 mm 2 mps 762 mmHg 65%
    04:00 +25°C° 0.1 mm 2 mps 762 mmHg 66%
    05:00 +25°C° 0.1 mm 2 mps 762 mmHg 66%
    06:00 +25°C° 0.1 mm 2 mps 763 mmHg 67%
    07:00 +25°C° 0.1 mm 2 mps 763 mmHg 64%
    08:00 +26°C° 0.1 mm 2 mps 764 mmHg 60%
    09:00 +26°C° 0.1 mm 3 mps 764 mmHg 57%
    10:00 +26°C° 0.1 mm 3 mps 764 mmHg 57%
    11:00 +27°C° 0.1 mm 3 mps 764 mmHg 56%
    12:00 +27°C° 0.1 mm 3 mps 764 mmHg 55%
    13:00 +28°C° 0 mm 3 mps 765 mmHg 51%
    14:00 +29°C° 0 mm 3 mps 765 mmHg 47%
    15:00 +30°C° 0 mm 3 mps 765 mmHg 43%
    16:00 +30°C° 0 mm 3 mps 765 mmHg 42%
    17:00 +29°C° 0 mm 3 mps 764 mmHg 42%
    18:00 +29°C° 0 mm 3 mps 764 mmHg 42%
    19:00 +27°C° 0 mm 3 mps 765 mmHg 47%
    20:00 +25°C° 0 mm 2 mps 765 mmHg 52%
    21:00 +24°C° 0 mm 1 mps 765 mmHg 57%
    22:00 +23°C° 0 mm 2 mps 765 mmHg 59%
    23:00 +21°C° 0 mm 2 mps 764 mmHg 62%

    Tomorrow, 27 August, Tuesday

    Time Temperature Precipitation Wind Pressure Humidity
    00:00 +21°C° 0 mm 2 mps 764 mmHg 64%
    01:00 +21°C° 0 mm 2 mps 764 mmHg 69%
    02:00 +20°C° 0 mm 3 mps 764 mmHg 75%
    03:00 +20°C° 0 mm 3 mps 764 mmHg 80%
    04:00 +20°C° 0 mm 3 mps 764 mmHg 81%
    05:00 +21°C° 0 mm 3 mps 763 mmHg 82%
    06:00 +21°C° 0 mm 3 mps 763 mmHg 84%
    07:00 +25°C° 0 mm 4 mps 763 mmHg 68%
    08:00 +28°C° 0 mm 5 mps 763 mmHg 53%
    09:00 +30°C° 0 mm 6 mps 763 mmHg 38%
    10:00 +32°C° 0 mm 6 mps 762 mmHg 34%
    11:00 +33°C° 0 mm 6 mps 762 mmHg 31%
    12:00 +34°C° 0 mm 7 mps 762 mmHg 28%
    13:00 +34°C° 0 mm 7 mps 761 mmHg 29%
    14:00 +34°C° 0 mm 7 mps 761 mmHg 29%
    15:00 +33°C° 0 mm 7 mps 761 mmHg 30%
    16:00 +32°C° 0 mm 7 mps 760 mmHg 33%
    17:00 +30°C° 0 mm 6 mps 760 mmHg 36%
    18:00 +28°C° 0 mm 5 mps 760 mmHg 39%
    19:00 +26°C° 0 mm 4 mps 760 mmHg 46%
    20:00 +24°C° 0 mm 3 mps 760 mmHg 54%
    21:00 +21°C° 0 mm 2 mps 760 mmHg 61%
    22:00 +21°C° 0 mm 2 mps 760 mmHg 63%
    23:00 +20°C° 0 mm 2 mps 760 mmHg 64%

    Day after tomorrow, 28 August, Wednesday

    Time Temperature Precipitation Wind Pressure Humidity
    00:00 +20°C° 0 mm 2 mps 760 mmHg 66%
    01:00 +20°C° 0 mm 2 mps 760 mmHg 70%
    02:00 +19°C° 0 mm 2 mps 760 mmHg 74%
    03:00 +19°C° 0 mm 2 mps 760 mmHg 78%
    04:00 +20°C° 0 mm 2 mps 760 mmHg 76%
    05:00 +20°C° 0 mm 2 mps 760 mmHg 74%
    06:00 +21°C° 0 mm 2 mps 760 mmHg 72%
    07:00 +25°C° 0 mm 3 mps 761 mmHg 58%
    08:00 +28°C° 0 mm 4 mps 761 mmHg 45%
    09:00 +33°C° 0 mm 5 mps 761 mmHg 31%
    10:00 +34°C° 0 mm 5 mps 760 mmHg 28%
    11:00 +35°C° 0 mm 6 mps 760 mmHg 26%
    12:00 +36°C° 0 mm 6 mps 760 mmHg 23%
    13:00 +36°C° 0 mm 6 mps 759 mmHg 22%
    14:00 +36°C° 0 mm 6 mps 759 mmHg 21%
    15:00 +36°C° 0 mm 7 mps 759 mmHg 21%
    16:00 +35°C° 0 mm 6 mps 759 mmHg 22%
    17:00 +34°C° 0 mm 5 mps 759 mmHg 23%
    18:00 +33°C° 0 mm 4 mps 759 mmHg 24%
    19:00 +29°C° 0 mm 4 mps 760 mmHg 28%
    20:00 +27°C° 0 mm 3 mps 760 mmHg 31%
    21:00 +25°C° 0 mm 2 mps 760 mmHg 35%
    22:00 +24°C° 0 mm 2 mps 761 mmHg 39%
    23:00 +24°C° 0 mm 3 mps 761 mmHg 43%

    29 August, Thursday

    Time Temperature Precipitation Wind Pressure Humidity
    00:00 +22°C° 0 mm 3 mps 761 mmHg 48%
    01:00 +21°C° 0 mm 3 mps 761 mmHg 50%
    02:00 +20°C° 0 mm 3 mps 762 mmHg 52%
    03:00 +19°C° 0 mm 4 mps 762 mmHg 55%
    04:00 +19°C° 0 mm 4 mps 763 mmHg 56%
    05:00 +18°C° 0 mm 3 mps 763 mmHg 58%
    06:00 +17°C° 0 mm 3 mps 763 mmHg 59%
    07:00 +19°C° 0 mm 4 mps 764 mmHg 50%
    08:00 +20°C° 0 mm 4 mps 764 mmHg 41%
    09:00 +22°C° 0 mm 5 mps 764 mmHg 32%
    10:00 +23°C° 0 mm 5 mps 764 mmHg 29%
    11:00 +25°C° 0 mm 5 mps 764 mmHg 27%
    12:00 +26°C° 0 mm 5 mps 764 mmHg 25%
    13:00 +26°C° 0 mm 4 mps 763 mmHg 24%
    14:00 +26°C° 0 mm 4 mps 763 mmHg 23%
    15:00 +27°C° 0 mm 4 mps 763 mmHg 22%
    16:00 +25°C° 0 mm 4 mps 763 mmHg 24%
    17:00 +23°C° 0 mm 4 mps 763 mmHg 26%
    18:00 +22°C° 0 mm 4 mps 763 mmHg 28%
    19:00 +20°C° 0 mm 4 mps 763 mmHg 37%
    20:00 +17°C° 0 mm 3 mps 763 mmHg 47%
    21:00 +14°C° 0 mm 3 mps 764 mmHg 56%
    22:00 +14°C° 0 mm 3 mps 763 mmHg 59%
    23:00 +14°C° 0 mm 3 mps 763 mmHg 62%

    30 August, Friday

    Time Temperature Precipitation Wind Pressure Humidity
    00:00 +14°C° 0 mm 2 mps 763 mmHg 65%
    01:00 +14°C° 0 mm 2 mps 763 mmHg 66%
    02:00 +14°C° 0 mm 2 mps 763 mmHg 66%
    03:00 +14°C° 0 mm 2 mps 762 mmHg 66%
    04:00 +15°C° 0 mm 2 mps 762 mmHg 64%
    05:00 +15°C° 0 mm 2 mps 762 mmHg 61%
    06:00 +15°C° 0 mm 2 mps 762 mmHg 59%
    07:00 +18°C° 0 mm 3 mps 762 mmHg 51%
    08:00 +21°C° 0 mm 3 mps 762 mmHg 43%
    09:00 +23°C° 0 mm 4 mps 762 mmHg 35%
    10:00 +25°C° 0 mm 4 mps 761 mmHg 33%
    11:00 +27°C° 0 mm 5 mps 761 mmHg 32%
    12:00 +28°C° 0 mm 5 mps 761 mmHg 30%
    13:00 +27°C° 0 mm 6 mps 761 mmHg 34%
    14:00 +27°C° 0 mm 6 mps 760 mmHg 38%
    15:00 +26°C° 0 mm 7 mps 760 mmHg 41%
    16:00 +24°C° 0 mm 6 mps 760 mmHg 46%
    17:00 +23°C° 0 mm 5 mps 760 mmHg 50%
    18:00 +22°C° 0 mm 5 mps 760 mmHg 54%
    19:00 +21°C° 0 mm 4 mps 760 mmHg 57%
    20:00 +20°C° 0 mm 3 mps 760 mmHg 59%
    21:00 +19°C° 0 mm 2 mps 761 mmHg 61%
    22:00 +19°C° 0 mm 2 mps 760 mmHg 64%
    23:00 +18°C° 0 mm 2 mps 760 mmHg 67%

    31 August, Saturday

    Time Temperature Precipitation Wind Pressure Humidity
    00:00 +19°C° 0 mm 1 mps 760 mmHg 70%
    01:00 +18°C° 0 mm 1 mps 760 mmHg 69%
    02:00 +18°C° 0 mm 1 mps 760 mmHg 69%
    03:00 +16°C° 0 mm 0 mps 760 mmHg 68%
    04:00 +18°C° 0 mm 1 mps 760 mmHg 67%
    05:00 +18°C° 0 mm 1 mps 761 mmHg 66%
    06:00 +18°C° 0 mm 1 mps 761 mmHg 65%
    07:00 +20°C° 0 mm 1 mps 761 mmHg 54%
    08:00 +21°C° 0 mm 2 mps 761 mmHg 44%
    09:00 +24°C° 0 mm 2 mps 762 mmHg 34%
    10:00 +26°C° 0 mm 2 mps 762 mmHg 30%
    11:00 +27°C° 0 mm 3 mps 762 mmHg 26%
    12:00 +28°C° 0 mm 3 mps 762 mmHg 22%
    13:00 +28°C° 0 mm 4 mps 762 mmHg 22%
    14:00 +28°C° 0 mm 4 mps 762 mmHg 22%
    15:00 +28°C° 0 mm 5 mps 762 mmHg 23%
    16:00 +26°C° 0 mm 4 mps 762 mmHg 28%
    17:00 +25°C° 0 mm 4 mps 762 mmHg 34%
    18:00 +22°C° 0 mm 4 mps 762 mmHg 40%
    19:00 +20°C° 0 mm 4 mps 763 mmHg 48%
    20:00 +18°C° 0 mm 3 mps 763 mmHg 55%
    21:00 +17°C° 0 mm 3 mps 763 mmHg 63%
    22:00 +16°C° 0 mm 2 mps 763 mmHg 66%
    23:00 +16°C° 0 mm 2 mps 763 mmHg 70%
    Show more